Location: Lake Zurich
(42.1970°N, 88.0930°W)
Time: 10:57:52
(UTC-06:00)

Daily predictions for brighter satellites

Satellite Brightness Start Highest point End
(mag) Time Altitude Azimuth Time Altitude Azimuth Time Altitude Azimuth
SJ 16-02 2.5 16:49:47 10° SSE 16:53:19 24° E 16:56:53 10° NE
COSMOS 2441 4.5 16:48:35 10° SSE 16:53:30 87° WSW 16:58:26 10° NNW
Cosmos 2279 Rocket 4.0 16:48:26 10° S 16:54:38 71° E 17:00:53 10° NNE
IDEFIX/ARIANE 42P 3.8 16:50:34 10° S 16:55:32 46° W 17:00:31 10° NNW
Cosmos 1975 Rocket 3.2 16:51:17 10° S 16:55:46 85° W 17:00:17 10° N
Cosmos 2298 Rocket 4.3 16:50:31 10° SSW 16:55:49 72° WNW 17:01:09 10° NNE
Cosmos 1975 3.0 16:58:09 10° N 17:02:13 77° W 17:06:16 10° S
SMAP 3.1 16:58:50 10° SSE 17:03:22 56° ENE 17:07:56 10° N
NOSS 3-2 (A) 4.2 16:58:37 10° NNW 17:05:47 48° NE 17:13:35 10° ESE
Meteor 2-4 Rocket 4.0 17:02:32 10° SSE 17:07:37 42° E 17:12:39 10° NNE
CSL-04 Debris 4.1 17:04:08 10° SSE 17:09:29 72° ENE 17:14:52 10° N
NOSS 3-2 (C) 4.4 17:06:21 10° NNW 17:13:20 42° NE 17:20:58 10° ESE
DELTA 2 R/B (1) 3.8 17:08:51 10° W 17:14:22 68° S 17:19:56 10° E
BREEZE-M DEB (TANK) 2.5 17:11:52 10° WNW 17:14:26 81° SSW 17:21:35 10° SE
Meteor 1-13 Rocket 4.2 17:12:06 10° S 17:17:38 69° E 17:23:20 10° NNE
ALOS 3.3 17:14:00 10° ESE 17:17:41 24° ENE 17:21:24 10° NNE
Cosmos 1025 Rocket 4.4 17:15:04 10° SE 17:18:00 18° E 17:19:59 14° NE
Cosmos 2369 3.9 17:12:56 10° S 17:18:26 54° ESE 17:24:00 10° NNE
Cosmos 2278 3.9 17:13:34 10° S 17:19:02 52° ESE 17:24:34 10° NNE
ATLAS 2AS CENTAUR R/B 3.3 17:12:19 10° SW 17:20:06 72° NW 17:28:16 10° NNE
ATLAS 3B R/B 2.6 17:13:30 10° NW 17:20:12 82° NE 17:26:43 10° SE
IRAS Rocket 4.4 17:18:02 10° SSE 17:23:31 79° WSW 17:29:02 10° NNW
FENGYUN 3A 4.4 17:19:07 10° SE 17:23:43 30° ENE 17:28:19 10° N
Cosmos 1536 Rocket 3.6 17:19:44 10° S 17:24:00 58° E 17:28:17 10° NNE
METEOR-M 4.3 17:19:48 10° SE 17:24:54 48° ENE 17:30:02 10° N
Hubble Space Telescope 3.8 17:24:53 10° SSW 17:25:02 10° S 17:25:09 10° S
Meteor 1-28 Rocket 3.1 17:21:22 10° NNE 17:25:08 73° E 17:28:54 10° S
CZ-4 R/B 1.2 17:22:17 10° SSE 17:26:08 69° ENE 17:30:04 10° N
CSL-04 Rocket 4.0 17:20:53 10° S 17:26:18 75° WSW 17:31:50 10° NNW
Cosmos 158 Rocket 3.8 17:21:29 10° NNW 17:26:36 76° ENE 17:31:32 10° SSE
USA 215 3.5 17:25:50 10° SE 17:32:22 76° SW 17:38:56 10° NW
Cosmos 1743 3.8 17:31:35 10° NNW 17:35:20 47° W 17:39:04 10° SSW
EO 1 Del DPAF 4.1 17:33:38 19° NE 17:35:36 30° E 17:38:58 10° SSE
Cosmos 1697 Rocket 3.1 17:31:33 10° S 17:36:53 44° ESE 17:41:05 16° NE
SKYMED 2 3.9 17:33:13 10° NNE 17:37:21 43° E 17:41:29 10° S
Cosmos 1515 4.4 17:34:49 10° SSE 17:38:12 32° E 17:39:55 22° NE
NOSS 8 (A) 4.3 17:35:44 10° SW 17:39:02 82° NW 17:41:05 21° NNE
NOSS 3-4 (A) 3.8 17:35:44 10° S 17:41:36 46° ESE 17:45:48 19° NE
NOSS 3-4 (C) 3.8 17:35:51 10° S 17:41:42 46° ESE 17:45:51 20° NE
Okean 2 3.9 17:42:44 10° SSE 17:46:29 35° E 17:48:05 25° NE
Abrixas rocket 3.5 17:43:42 10° WNW 17:46:32 27° N 17:47:23 23° NNE
Cosmos 2082 3.7 17:42:58 10° NNW 17:48:38 84° WSW 17:54:15 10° SSE
PSLV R/B 3.1 17:47:07 10° WSW 17:50:15 69° S 17:51:14 39° ESE
Landsat 4 3.6 17:49:54 14° NNE 17:53:12 78° ESE 17:57:00 10° S
ISS -1.4 17:50:54 10° WNW 17:53:38 25° SW 17:56:22 10° SSE
Gbstr 26 Del rocket 4.4 17:45:58 10° SW 17:54:02 78° SE 17:58:45 24° ENE
Cosmos 2266 Rocket 4.0 17:48:49 10° N 17:54:55 85° W 18:01:06 10° S
ERS-2 2.0 17:53:12 10° SSE 17:56:48 60° ENE 18:00:26 10° N
BREEZE-M DEB (TANK) 3.7 17:56:12 10° NW 17:59:07 60° NNE 18:02:42 23° ESE
SPOT 3 Rocket 3.5 17:55:01 10° SSE 18:00:06 62° ENE 18:05:13 10° N
Cosmos 2227 Rocket 3.0 17:54:48 10° NNW 18:00:18 54° WSW 18:05:46 10° S
CENTAUR R/B 3.5 17:53:06 10° NNW 18:00:19 39° NE 18:04:34 24° E
YAOGAN 1 3.3 18:05:28 10° S 18:09:41 54° W 18:13:57 10° NNW
MOS 1 4.3 18:07:35 10° SSE 18:13:17 83° WSW 18:19:00 10° NNW
Cosmos 2251 Rocket 4.0 18:09:13 10° N 18:13:36 36° NE 18:13:36 36° NE
S3M 4.4 18:11:27 10° SSE 18:16:58 37° E 18:17:05 37° E
Cosmos 1980 Rocket 2.2 18:12:19 10° S 18:17:50 56° ESE 18:19:35 40° NE
Cosmos 494 Rocket 3.9 18:12:54 10° NNW 18:18:08 60° ENE 18:23:05 11° SSE
Cosmos 1066 Rocket 4.4 18:14:00 10° SSE 18:19:12 44° E 18:19:39 43° E
COSMO-SKYMED 1 3.2 18:21:48 14° N 18:25:26 55° WNW 18:29:40 10° SSW
Cosmos 2297 Rocket 3.6 18:21:36 10° NW 18:26:48 38° WSW 18:31:57 10° S
Cosmos 1244 Rocket 4.3 18:23:34 10° N 18:29:45 82° E 18:35:56 10° S
Atlas Centaur 2 4.4 18:28:15 10° SW 18:29:51 11° SSW 18:31:21 10° S
Gblst 52 Del rocket 4.2 18:25:17 10° NW 18:30:59 82° NNE 18:33:02 44° ESE
SJ 16-02 3.1 18:27:53 10° SW 18:31:46 30° WNW 18:35:02 13° N
Cosmos 2344 4.4 18:35:12 10° S 18:40:34 31° SE 18:40:34 31° SE
Cosmos 2227 4.2 18:39:58 10° NNW 18:45:09 61° NNE 18:45:09 61° NNE
RESURS DK-1 3.7 18:42:08 10° SSW 18:44:18 30° S 18:44:18 30° S
Cosmos 1553 Rocket 3.9 18:43:59 10° S 18:50:22 78° E 18:52:38 43° NNE
SL-08 R/B 4.3 18:45:15 10° N 18:51:34 79° E 18:57:45 10° S
Cosmos 1417 Rocket 4.4 18:47:23 10° S 18:53:33 87° W 18:56:48 31° N
Okean 1-7 Rocket 4.3 18:49:23 10° SSW 18:53:39 52° W 18:54:16 48° NW
SL-24 R/B - RUBIN 2 4.4 18:48:42 10° SW 18:54:54 73° NW 18:55:53 60° N
ALOS 3.7 18:50:38 10° SSW 18:54:55 37° W 18:59:15 10° NNW
Cosmos 1025 Rocket 4.4 18:51:20 10° SW 18:55:18 36° WNW 18:56:56 26° NNW
SL-16 R/B 4.0 18:53:55 10° S 18:55:26 18° SSE 18:55:26 18° SSE
DELTA 2 R/B (1) 4.0 18:55:12 10° W 19:00:36 52° SSW 19:00:47 52° S
Cosmos 1745 Rocket 4.4 18:56:57 10° N 19:09:07 12° S 19:09:27 10° S
Cosmos 2263 Rocket 4.2 18:58:26 10° N 18:59:25 15° N 18:59:25 15° N
Cosmos 2322 Rocket 4.1 18:58:58 10° S 19:00:14 17° S 19:00:14 17° S
Cosmos 2360 4.4 19:00:52 10° SSW 19:06:34 67° WNW 19:07:03 64° NNW
Cosmos 1697 Rocket 4.3 19:16:08 10° WSW 19:20:59 29° NW 19:22:52 24° NNW
CENTAUR R/B 3.4 19:43:39 10° NW 19:51:32 63° WSW 19:51:51 63° SW
Cosmos 1980 Rocket 4.2 19:57:38 10° WSW 20:01:24 24° WNW 20:01:24 24° WNW
